Flag for U.S.A. Weather past 2 weeks in Vevay, Indiana, U.S.A.

Now
70 °F

Scattered clouds.


Feels Like: 77 °F
Forecast: 49 / 67 °F
Wind: 22 mph from Northwest

Location: Cincinnati / Northern Kentucky International Airport

Current Time: Sep 21, 2014 at 8:10:18 PM

Latest Report: Sep 21, 2014 at 6:52 PM


Visibility: 10 mi

Pressure: 29.89 "Hg

Humidity: 44%

Dew point: 47 °F

Location of VevayLocation

Historic Weather in Vevay — Graph

°F

Vevay temperature yesterday

Maximum temperature yesterday: 80 °F (at 2:52 PM)
Minimum temperature yesterday: 60 °F (at 5:52 AM)
Average temperature yesterday: 70 °F

Past Weeks' High & Low Weather Summary

 TemperatureHumidityPressure
High82 °F (Sep 9, 3:52 PM)96% (Sep 15, 6:52 AM)30.31 "Hg (Sep 15, 6:52 AM)
Low48 °F (Sep 17, 4:52 AM)32% (Sep 21, 2:52 PM)29.77 "Hg (Sep 10, 7:52 PM)
Average65 °F70%30.07 "Hg
* Reported Sep 6 6:52 PM — Sep 21 6:52 PM, Vevay, Weather by CustomWeather, © 2014

Note: Actual official high and low records may vary slightly from our data, if they occured in-between our weather recording intervals... More about our weather records

Advertising

Vevay weather history for previous 24 hours

 ConditionsComfort  
Time TempWeatherWind HumidityBarometerVisibility
6:52 PM
Sep 21
70 °FScattered clouds.22 mph44%29.89 "Hg10 mi
5:52 PM73 °FScattered clouds.18 mph40%29.86 "Hg10 mi
4:52 PM73 °FScattered clouds.18 mph40%29.85 "Hg10 mi
3:52 PM77 °FPassing clouds.18 mph35%29.83 "Hg10 mi
2:52 PM77 °FSunny.21 mph32%29.83 "Hg10 mi
1:52 PM77 °FPassing clouds.16 mph33%29.83 "Hg10 mi
12:52 PM76 °FPassing clouds.21 mph43%29.83 "Hg10 mi
12:04 PM77 °FPartly sunny.17 mph61%29.86 "Hg10 mi
11:52 AM77 °FScattered clouds.15 mph62%29.83 "Hg10 mi
10:52 AM75 °FPartly sunny.20 mph69%29.83 "Hg9 mi
9:52 AM73 °FPartly sunny.13 mph79%29.82 "Hg7 mi
8:52 AM72 °FPartly sunny.8 mph81%29.82 "Hg7 mi
7:52 AM72 °FOvercast.12 mph81%29.82 "Hg8 mi
6:52 AM72 °FPassing clouds.8 mph78%29.80 "Hg10 mi
5:52 AM70 °FPartly cloudy.7 mph84%29.80 "Hg10 mi
4:52 AM71 °FMostly cloudy.10 mph78%29.81 "Hg10 mi
3:52 AM70 °FPassing clouds.8 mph81%29.84 "Hg10 mi
2:52 AM69 °FPassing clouds.8 mph84%29.85 "Hg10 mi
1:52 AM70 °FPartly cloudy.8 mph81%29.87 "Hg10 mi
12:52 AM71 °FMostly cloudy.8 mph78%29.90 "Hg10 mi
11:52 PM
Sep 20
71 °FMostly cloudy.9 mph78%29.91 "Hg10 mi
10:52 PM71 °FOvercast.9 mph78%29.93 "Hg10 mi
9:52 PM68 °FPartly cloudy.7 mph87%29.95 "Hg7 mi
8:52 PM73 °FPartly cloudy.5 mph76%29.96 "Hg9 mi
Weather by CustomWeather, © 2014

See weather overviewHow to use our weather pages